Time,TemperatureF,DewpointF,PressureIn,WindDirection,WindDirectionDegrees,WindSpeedMPH,WindSpeedGustMPH,Humidity,HourlyPrecipIn,Conditions,Clouds,dailyrainin,SoftwareType,DateUTC
2013-02-12 00:01:00,34.6,29.4,29.72,West,260,5.0,5.0,81,0.00,,,0.00,Wunderground v.1.15,2013-02-12 05:01:00,
2013-02-12 00:03:00,34.6,29.4,29.72,West,263,5.0,5.0,81,0.00,,,0.00,Wunderground v.1.15,2013-02-12 05:03:00,
2013-02-12 00:07:00,34.5,29.6,29.72,West,263,4.0,5.0,82,0.00,,,0.00,Wunderground v.1.15,2013-02-12 05:07:00,
2013-02-12 00:09:00,34.4,29.2,29.71,West,259,4.0,4.0,81,0.00,,,0.00,Wunderground v.1.15,2013-02-12 05:09:00,
2013-02-12 00:15:00,34.4,29.2,29.72,West,263,3.0,4.0,81,0.00,,,0.00,Wunderground v.1.15,2013-02-12 05:15:00,
2013-02-12 00:21:00,34.4,29.5,29.72,West,261,2.0,3.0,82,0.00,,,0.00,Wunderground v.1.15,2013-02-12 05:21:00,
2013-02-12 00:27:00,34.3,29.4,29.72,West,271,3.0,5.0,82,0.00,,,0.00,Wunderground v.1.15,2013-02-12 05:27:00,
2013-02-12 00:33:00,34.3,29.4,29.72,West,264,4.0,6.0,82,0.00,,,0.00,Wunderground v.1.15,2013-02-12 05:33:00,
2013-02-12 00:39:00,34.2,29.3,29.71,WSW,250,4.0,7.0,82,0.00,,,0.00,Wunderground v.1.15,2013-02-12 05:39:00,
2013-02-12 00:45:00,34.2,29.6,29.71,West,268,5.0,7.0,83,0.00,,,0.00,Wunderground v.1.15,2013-02-12 05:45:00,
2013-02-12 00:51:00,34.2,29.6,29.71,West,271,5.0,5.0,83,0.00,,,0.00,Wunderground v.1.15,2013-02-12 05:51:00,
2013-02-12 00:57:00,34.2,29.6,29.72,WNW,287,5.0,9.0,83,0.00,,,0.00,Wunderground v.1.15,2013-02-12 05:57:00,
2013-02-12 01:03:00,34.2,29.6,29.71,West,261,5.0,5.0,83,0.00,,,0.00,Wunderground v.1.15,2013-02-12 06:03:00,
2013-02-12 01:09:00,34.2,29.6,29.71,WNW,285,7.0,7.0,83,0.00,,,0.00,Wunderground v.1.15,2013-02-12 06:09:00,
2013-02-12 01:15:00,34.4,29.8,29.71,WNW,295,7.0,10.0,83,0.00,,,0.00,Wunderground v.1.15,2013-02-12 06:15:00,
2013-02-12 01:21:00,34.5,29.6,29.71,WNW,285,9.0,9.0,82,0.00,,,0.00,Wunderground v.1.15,2013-02-12 06:21:00,
2013-02-12 01:27:00,34.6,29.7,29.71,WNW,287,9.0,14.0,82,0.00,,,0.00,Wunderground v.1.15,2013-02-12 06:27:00,
2013-02-12 01:33:00,34.7,29.5,29.71,West,263,9.0,10.0,81,0.00,,,0.00,Wunderground v.1.15,2013-02-12 06:33:00,
2013-02-12 01:39:00,34.7,29.5,29.71,WNW,288,9.0,9.0,81,0.00,,,0.00,Wunderground v.1.15,2013-02-12 06:39:00,
2013-02-12 01:45:00,34.8,29.6,29.71,West,267,8.0,9.0,81,0.00,,,0.00,Wunderground v.1.15,2013-02-12 06:45:00,
2013-02-12 01:51:00,34.7,29.8,29.71,WNW,287,8.0,14.0,82,0.00,,,0.00,Wunderground v.1.15,2013-02-12 06:51:00,
2013-02-12 01:57:00,34.6,29.7,29.71,West,268,8.0,14.0,82,0.00,,,0.00,Wunderground v.1.15,2013-02-12 06:57:00,
2013-02-12 02:03:00,34.6,29.7,29.72,WSW,258,8.0,13.0,82,0.00,,,0.00,Wunderground v.1.15,2013-02-12 07:03:00,
2013-02-12 02:09:00,34.6,29.7,29.72,West,267,8.0,8.0,82,0.00,,,0.00,Wunderground v.1.15,2013-02-12 07:09:00,
2013-02-12 02:15:00,34.6,29.7,29.72,West,277,10.0,13.0,82,0.00,,,0.00,Wunderground v.1.15,2013-02-12 07:15:00,
2013-02-12 02:21:00,34.7,29.5,29.72,WSW,245,12.0,16.0,81,0.00,,,0.00,Wunderground v.1.15,2013-02-12 07:21:00,
2013-02-12 02:27:00,34.8,29.6,29.72,WNW,284,14.0,16.0,81,0.00,,,0.00,Wunderground v.1.15,2013-02-12 07:27:00,
2013-02-12 02:33:00,34.7,29.5,29.72,West,261,13.0,14.0,81,0.00,,,0.00,Wunderground v.1.15,2013-02-12 07:33:00,
2013-02-12 02:39:00,34.5,29.6,29.72,WNW,284,11.0,11.0,82,0.00,,,0.00,Wunderground v.1.15,2013-02-12 07:39:00,
2013-02-12 02:45:00,34.4,29.8,29.72,WNW,292,11.0,11.0,83,0.00,,,0.00,Wunderground v.1.15,2013-02-12 07:45:00,
2013-02-12 02:51:00,34.1,29.8,29.72,WNW,287,10.0,13.0,84,0.00,,,0.00,Wunderground v.1.15,2013-02-12 07:51:00,
2013-02-12 02:57:00,33.9,29.6,29.72,WSW,244,10.0,13.0,84,0.00,,,0.00,Wunderground v.1.15,2013-02-12 07:57:00,
2013-02-12 03:03:00,33.9,29.6,29.72,West,277,10.0,12.0,84,0.00,,,0.00,Wunderground v.1.15,2013-02-12 08:03:00,
2013-02-12 03:09:00,33.9,29.6,29.72,WNW,283,10.0,15.0,84,0.00,,,0.00,Wunderground v.1.15,2013-02-12 08:09:00,
2013-02-12 03:15:00,33.9,29.6,29.72,West,278,11.0,15.0,84,0.00,,,0.00,Wunderground v.1.15,2013-02-12 08:15:00,
2013-02-12 03:21:00,33.8,29.8,29.72,WSW,247,10.0,15.0,85,0.00,,,0.00,Wunderground v.1.15,2013-02-12 08:21:00,
2013-02-12 03:27:00,33.8,29.8,29.72,West,260,9.0,15.0,85,0.00,,,0.00,Wunderground v.1.15,2013-02-12 08:27:00,
2013-02-12 03:33:00,33.6,29.6,29.72,WSW,248,9.0,9.0,85,0.00,,,0.00,Wunderground v.1.15,2013-02-12 08:33:00,
2013-02-12 03:39:00,33.5,29.8,29.72,West,277,9.0,9.0,86,0.00,,,0.00,Wunderground v.1.15,2013-02-12 08:39:00,
2013-02-12 03:45:00,33.5,29.5,29.72,WNW,283,10.0,12.0,85,0.00,,,0.00,Wunderground v.1.15,2013-02-12 08:45:00,
2013-02-12 03:51:00,33.6,29.6,29.73,WSW,242,11.0,15.0,85,0.00,,,0.00,Wunderground v.1.15,2013-02-12 08:51:00,
2013-02-12 03:57:00,33.6,29.6,29.73,WSW,248,10.0,15.0,85,0.00,,,0.00,Wunderground v.1.15,2013-02-12 08:57:00,
2013-02-12 04:03:00,33.6,29.6,29.73,West,281,9.0,13.0,85,0.00,,,0.00,Wunderground v.1.15,2013-02-12 09:03:00,
2013-02-12 04:09:00,33.6,29.6,29.73,WNW,285,10.0,11.0,85,0.00,,,0.00,Wunderground v.1.15,2013-02-12 09:09:00,
2013-02-12 04:15:00,33.6,29.6,29.73,WNW,285,10.0,11.0,85,0.00,,,0.00,Wunderground v.1.15,2013-02-12 09:15:00,
2013-02-12 04:21:00,33.6,29.6,29.73,West,281,10.0,20.0,85,0.00,,,0.00,Wunderground v.1.15,2013-02-12 09:21:00,
2013-02-12 04:27:00,33.6,29.6,29.73,WNW,288,11.0,20.0,85,0.00,,,0.00,Wunderground v.1.15,2013-02-12 09:27:00,
2013-02-12 04:33:00,33.7,29.7,29.73,West,259,11.0,17.0,85,0.00,,,0.00,Wunderground v.1.15,2013-02-12 09:33:00,
2013-02-12 04:39:00,33.7,29.4,29.74,WNW,285,10.0,10.0,84,0.00,,,0.00,Wunderground v.1.15,2013-02-12 09:39:00,
2013-02-12 04:45:00,33.8,29.5,29.74,West,280,10.0,15.0,84,0.00,,,0.00,Wunderground v.1.15,2013-02-12 09:45:00,
2013-02-12 04:51:00,33.7,29.4,29.74,West,275,13.0,19.0,84,0.00,,,0.00,Wunderground v.1.15,2013-02-12 09:51:00,
2013-02-12 04:57:00,33.7,29.7,29.74,WNW,290,12.0,19.0,85,0.00,,,0.00,Wunderground v.1.15,2013-02-12 09:57:00,
2013-02-12 05:03:00,33.6,29.6,29.74,WNW,289,10.0,17.0,85,0.00,,,0.00,Wunderground v.1.15,2013-02-12 10:03:00,
2013-02-12 05:09:00,33.4,29.7,29.74,West,279,10.0,10.0,86,0.00,,,0.00,Wunderground v.1.15,2013-02-12 10:09:00,
2013-02-12 05:15:00,33.2,29.8,29.74,West,278,8.0,10.0,87,0.00,,,0.00,Wunderground v.1.15,2013-02-12 10:15:00,
2013-02-12 05:21:00,33.0,29.8,29.75,WSW,258,9.0,12.0,88,0.00,,,0.00,Wunderground v.1.15,2013-02-12 10:21:00,
2013-02-12 05:27:00,32.8,29.6,29.75,West,265,10.0,12.0,88,0.00,,,0.00,Wunderground v.1.15,2013-02-12 10:27:00,
2013-02-12 05:33:00,32.6,29.7,29.75,West,268,9.0,10.0,89,0.00,,,0.00,Wunderground v.1.15,2013-02-12 10:33:00,
2013-02-12 05:39:00,32.5,29.6,29.75,WNW,282,9.0,9.0,89,0.00,,,0.00,Wunderground v.1.15,2013-02-12 10:39:00,
2013-02-12 05:45:00,32.4,29.5,29.75,WNW,284,9.0,15.0,89,0.00,,,0.00,Wunderground v.1.15,2013-02-12 10:45:00,
2013-02-12 05:51:00,32.3,29.4,29.75,WNW,290,10.0,14.0,89,0.00,,,0.00,Wunderground v.1.15,2013-02-12 10:51:00,
2013-02-12 05:57:00,32.2,29.3,29.75,WSW,238,11.0,14.0,89,0.00,,,0.00,Wunderground v.1.15,2013-02-12 10:57:00,
2013-02-12 06:03:00,32.2,29.3,29.76,WNW,284,9.0,12.0,89,0.00,,,0.00,Wunderground v.1.15,2013-02-12 11:03:00,
2013-02-12 06:09:00,32.1,29.2,29.76,West,279,10.0,10.0,89,0.00,,,0.00,Wunderground v.1.15,2013-02-12 11:09:00,
2013-02-12 06:15:00,32.1,29.2,29.77,WSW,255,10.0,16.0,89,0.00,,,0.00,Wunderground v.1.15,2013-02-12 11:15:00,
2013-02-12 06:21:00,32.1,29.2,29.76,West,265,9.0,9.0,89,0.00,,,0.00,Wunderground v.1.15,2013-02-12 11:21:00,
2013-02-12 06:27:00,32.0,29.1,29.76,West,276,10.0,13.0,89,0.00,,,0.00,Wunderground v.1.15,2013-02-12 11:27:00,
2013-02-12 06:33:00,32.0,30.7,29.76,West,276,11.0,19.0,95,0.00,,,0.00,Wunderground v.1.15,2013-02-12 11:33:00,
2013-02-12 06:39:00,31.9,29.0,29.77,WSW,240,10.0,10.0,89,0.00,,,0.00,Wunderground v.1.15,2013-02-12 11:39:00,
2013-02-12 06:45:00,31.9,29.0,29.77,West,277,10.0,22.0,89,0.00,,,0.00,Wunderground v.1.15,2013-02-12 11:45:00,
2013-02-12 06:51:00,31.9,29.0,29.77,SW,225,10.0,11.0,89,0.00,,,0.00,Wunderground v.1.15,2013-02-12 11:51:00,
2013-02-12 06:57:00,31.8,28.7,29.78,WNW,283,10.0,18.0,88,0.00,,,0.00,Wunderground v.1.15,2013-02-12 11:57:00,
2013-02-12 07:03:00,31.8,28.7,29.78,West,278,12.0,14.0,88,0.00,,,0.00,Wunderground v.1.15,2013-02-12 12:03:00,
2013-02-12 07:09:00,31.8,28.7,29.78,West,270,10.0,10.0,88,0.00,,,0.00,Wunderground v.1.15,2013-02-12 12:09:00,
2013-02-12 07:16:00,31.8,28.7,29.79,West,269,9.0,12.0,88,0.00,,,0.00,Wunderground v.1.15,2013-02-12 12:16:00,
2013-02-12 07:21:00,31.8,28.7,29.79,West,281,9.0,9.0,88,0.00,,,0.00,Wunderground v.1.15,2013-02-12 12:21:00,
2013-02-12 07:27:00,31.8,28.7,29.79,WSW,250,8.0,11.0,88,0.00,,,0.00,Wunderground v.1.15,2013-02-12 12:27:00,
2013-02-12 07:33:00,31.9,28.8,29.80,West,263,11.0,15.0,88,0.00,,,0.00,Wunderground v.1.15,2013-02-12 12:33:00,
2013-02-12 07:39:00,31.9,28.8,29.80,West,277,9.0,9.0,88,0.00,,,0.00,Wunderground v.1.15,2013-02-12 12:39:00,
2013-02-12 07:45:00,32.0,29.1,29.80,WSW,246,10.0,13.0,89,0.00,,,0.00,Wunderground v.1.15,2013-02-12 12:45:00,
2013-02-12 07:51:00,32.1,29.2,29.80,WNW,283,12.0,22.0,89,0.00,,,0.00,Wunderground v.1.15,2013-02-12 12:51:00,
2013-02-12 07:57:00,32.2,29.3,29.80,West,278,12.0,22.0,89,0.00,,,0.00,Wunderground v.1.15,2013-02-12 12:57:00,
2013-02-12 08:03:00,32.3,29.4,29.80,West,279,11.0,13.0,89,0.00,,,0.00,Wunderground v.1.15,2013-02-12 13:03:00,
2013-02-12 08:09:00,32.4,29.5,29.81,WSW,252,11.0,15.0,89,0.00,,,0.00,Wunderground v.1.15,2013-02-12 13:09:00,
2013-02-12 08:15:00,32.5,29.6,29.81,NW,315,12.0,27.0,89,0.00,,,0.00,Wunderground v.1.15,2013-02-12 13:15:00,
2013-02-12 08:21:00,32.6,29.7,29.81,WNW,294,11.0,14.0,89,0.00,,,0.00,Wunderground v.1.15,2013-02-12 13:21:00,
2013-02-12 08:27:00,32.6,29.7,29.81,WNW,293,10.0,14.0,89,0.00,,,0.00,Wunderground v.1.15,2013-02-12 13:27:00,
2013-02-12 08:33:00,32.7,29.8,29.82,West,281,10.0,10.0,89,0.00,,,0.00,Wunderground v.1.15,2013-02-12 13:33:00,
2013-02-12 08:39:00,32.8,29.9,29.82,West,274,8.0,9.0,89,0.00,,,0.00,Wunderground v.1.15,2013-02-12 13:39:00,
2013-02-12 08:45:00,32.8,29.9,29.83,WNW,293,9.0,12.0,89,0.00,,,0.00,Wunderground v.1.15,2013-02-12 13:45:00,
2013-02-12 08:51:00,32.8,29.9,29.83,West,271,10.0,16.0,89,0.00,,,0.00,Wunderground v.1.15,2013-02-12 13:51:00,
2013-02-12 08:57:00,32.9,30.0,29.83,WNW,292,11.0,16.0,89,0.00,,,0.00,Wunderground v.1.15,2013-02-12 13:57:00,
2013-02-12 09:03:00,32.9,30.0,29.83,West,263,10.0,18.0,89,0.00,,,0.00,Wunderground v.1.15,2013-02-12 14:03:00,
2013-02-12 09:09:00,32.9,29.7,29.83,WSW,254,12.0,12.0,88,0.00,,,0.00,Wunderground v.1.15,2013-02-12 14:09:00,
2013-02-12 09:15:00,32.9,29.7,29.84,West,273,12.0,12.0,88,0.00,,,0.00,Wunderground v.1.15,2013-02-12 14:15:00,
2013-02-12 09:21:00,33.0,29.8,29.84,WNW,284,10.0,15.0,88,0.00,,,0.00,Wunderground v.1.15,2013-02-12 14:21:00,
2013-02-12 09:27:00,33.0,29.8,29.84,WNW,300,10.0,17.0,88,0.00,,,0.00,Wunderground v.1.15,2013-02-12 14:27:00,
2013-02-12 09:33:00,33.1,29.9,29.84,WSW,244,12.0,16.0,88,0.00,,,0.00,Wunderground v.1.15,2013-02-12 14:33:00,
2013-02-12 09:39:00,33.2,30.0,29.84,WNW,288,10.0,11.0,88,0.00,,,0.00,Wunderground v.1.15,2013-02-12 14:39:00,
2013-02-12 09:45:00,33.2,30.0,29.85,West,271,9.0,15.0,88,0.00,,,0.00,Wunderground v.1.15,2013-02-12 14:45:00,
2013-02-12 09:51:00,33.2,29.8,29.85,West,277,12.0,15.0,87,0.00,,,0.00,Wunderground v.1.15,2013-02-12 14:51:00,
2013-02-12 09:57:00,33.2,29.8,29.86,WNW,298,11.0,15.0,87,0.00,,,0.00,Wunderground v.1.15,2013-02-12 14:57:00,
2013-02-12 10:03:00,33.2,29.8,29.85,West,275,9.0,9.0,87,0.00,,,0.00,Wunderground v.1.15,2013-02-12 15:03:00,
2013-02-12 10:09:00,33.3,29.8,29.85,West,279,10.0,10.0,87,0.00,,,0.00,Wunderground v.1.15,2013-02-12 15:09:00,
2013-02-12 10:15:00,33.3,29.8,29.86,WNW,286,10.0,13.0,87,0.00,,,0.00,Wunderground v.1.15,2013-02-12 15:15:00,
2013-02-12 10:21:00,33.3,29.8,29.86,West,274,9.0,14.0,87,0.00,,,0.00,Wunderground v.1.15,2013-02-12 15:21:00,
2013-02-12 10:27:00,33.5,29.8,29.86,WNW,293,12.0,15.0,86,0.00,,,0.00,Wunderground v.1.15,2013-02-12 15:27:00,
2013-02-12 10:33:00,33.6,29.9,29.86,WNW,291,13.0,15.0,86,0.00,,,0.00,Wunderground v.1.15,2013-02-12 15:33:00,
2013-02-12 10:39:00,33.7,29.7,29.85,WNW,294,13.0,13.0,85,0.00,,,0.00,Wunderground v.1.15,2013-02-12 15:39:00,
2013-02-12 10:45:00,33.7,29.7,29.86,WNW,293,14.0,15.0,85,0.00,,,0.00,Wunderground v.1.15,2013-02-12 15:45:00,
2013-02-12 10:51:00,33.8,29.8,29.85,West,274,14.0,23.0,85,0.00,,,0.00,Wunderground v.1.15,2013-02-12 15:51:00,
2013-02-12 10:57:00,33.9,29.6,29.86,West,272,15.0,23.0,84,0.00,,,0.00,Wunderground v.1.15,2013-02-12 15:57:00,
2013-02-12 11:03:00,33.9,29.6,29.86,WNW,300,14.0,23.0,84,0.00,,,0.00,Wunderground v.1.15,2013-02-12 16:03:00,
2013-02-12 11:09:00,34.0,29.7,29.85,West,272,13.0,15.0,84,0.00,,,0.00,Wunderground v.1.15,2013-02-12 16:09:00,
2013-02-12 11:15:00,34.1,29.8,29.86,NW,304,14.0,22.0,84,0.00,,,0.00,Wunderground v.1.15,2013-02-12 16:15:00,
2013-02-12 11:21:00,34.1,29.8,29.86,NW,306,14.0,15.0,84,0.00,,,0.00,Wunderground v.1.15,2013-02-12 16:21:00,
2013-02-12 11:27:00,34.1,29.5,29.86,WNW,288,14.0,15.0,83,0.00,,,0.00,Wunderground v.1.15,2013-02-12 16:27:00,
2013-02-12 11:33:00,34.1,29.5,29.86,WNW,290,15.0,19.0,83,0.00,,,0.00,Wunderground v.1.15,2013-02-12 16:33:00,
2013-02-12 11:39:00,34.1,29.5,29.86,WNW,282,14.0,19.0,83,0.00,,,0.00,Wunderground v.1.15,2013-02-12 16:39:00,
2013-02-12 11:45:00,34.1,29.5,29.86,West,280,14.0,19.0,83,0.00,,,0.00,Wunderground v.1.15,2013-02-12 16:45:00,
2013-02-12 11:51:00,34.1,29.5,29.86,West,275,14.0,20.0,83,0.00,,,0.00,Wunderground v.1.15,2013-02-12 16:51:00,
2013-02-12 11:57:00,34.0,29.4,29.86,WNW,290,14.0,20.0,83,0.00,,,0.00,Wunderground v.1.15,2013-02-12 16:57:00,
2013-02-12 12:03:00,34.0,29.4,29.87,WNW,284,14.0,18.0,83,0.00,,,0.00,Wunderground v.1.15,2013-02-12 17:03:00,
2013-02-12 12:09:00,34.0,29.4,29.86,WSW,254,15.0,15.0,83,0.00,,,0.00,Wunderground v.1.15,2013-02-12 17:09:00,
2013-02-12 12:15:00,34.0,29.4,29.86,NNW,334,14.0,15.0,83,0.00,,,0.00,Wunderground v.1.15,2013-02-12 17:15:00,
2013-02-12 12:21:00,33.9,29.3,29.87,WNW,294,13.0,13.0,83,0.00,,,0.01,Wunderground v.1.15,2013-02-12 17:21:00,
2013-02-12 12:27:00,34.0,29.4,29.87,WSW,256,13.0,14.0,83,0.00,,,0.01,Wunderground v.1.15,2013-02-12 17:27:00,
2013-02-12 12:33:00,34.0,29.4,29.86,WNW,292,12.0,25.0,83,0.00,,,0.01,Wunderground v.1.15,2013-02-12 17:33:00,
2013-02-12 12:39:00,34.0,29.4,29.87,WSW,252,14.0,14.0,83,0.00,,,0.01,Wunderground v.1.15,2013-02-12 17:39:00,
2013-02-12 12:45:00,33.9,29.3,29.87,West,275,14.0,17.0,83,0.00,,,0.01,Wunderground v.1.15,2013-02-12 17:45:00,
2013-02-12 12:51:00,33.9,29.3,29.87,WNW,298,14.0,14.0,83,0.00,,,0.01,Wunderground v.1.15,2013-02-12 17:51:00,
2013-02-12 12:57:00,33.9,29.3,29.87,WNW,282,13.0,14.0,83,0.00,,,0.01,Wunderground v.1.15,2013-02-12 17:57:00,
2013-02-12 13:03:00,33.9,29.3,29.87,West,275,13.0,13.0,83,0.00,,,0.01,Wunderground v.1.15,2013-02-12 18:03:00,
2013-02-12 13:09:00,33.8,29.2,29.88,West,274,14.0,14.0,83,0.00,,,0.02,Wunderground v.1.15,2013-02-12 18:09:00,
2013-02-12 13:15:00,33.8,29.2,29.88,NNW,331,13.0,14.0,83,0.00,,,0.02,Wunderground v.1.15,2013-02-12 18:15:00,
2013-02-12 13:21:00,33.7,29.1,29.88,West,271,12.0,14.0,83,0.00,,,0.02,Wunderground v.1.15,2013-02-12 18:21:00,
2013-02-12 13:27:00,33.7,29.1,29.88,NW,314,13.0,17.0,83,0.00,,,0.02,Wunderground v.1.15,2013-02-12 18:27:00,
2013-02-12 13:33:00,33.7,28.8,29.88,WNW,303,12.0,14.0,82,0.00,,,0.02,Wunderground v.1.15,2013-02-12 18:33:00,
2013-02-12 13:39:00,33.8,28.9,29.89,West,271,13.0,16.0,82,0.00,,,0.02,Wunderground v.1.15,2013-02-12 18:39:00,
2013-02-12 13:45:00,33.8,28.6,29.89,NW,320,13.0,16.0,81,0.00,,,0.02,Wunderground v.1.15,2013-02-12 18:45:00,
2013-02-12 13:51:00,33.9,28.7,29.89,WNW,284,11.0,15.0,81,0.00,,,0.02,Wunderground v.1.15,2013-02-12 18:51:00,
2013-02-12 13:57:00,33.9,28.7,29.89,WNW,290,12.0,16.0,81,0.00,,,0.02,Wunderground v.1.15,2013-02-12 18:57:00,
2013-02-12 14:03:00,34.0,28.5,29.88,WNW,283,10.0,12.0,80,0.00,,,0.02,Wunderground v.1.15,2013-02-12 19:03:00,
2013-02-12 14:09:00,34.0,28.8,29.89,WNW,296,9.0,11.0,81,0.00,,,0.02,Wunderground v.1.15,2013-02-12 19:09:00,
2013-02-12 14:15:00,33.9,28.4,29.88,West,267,10.0,16.0,80,0.00,,,0.02,Wunderground v.1.15,2013-02-12 19:15:00,
2013-02-12 14:21:00,33.9,28.4,29.89,West,279,11.0,17.0,80,0.00,,,0.02,Wunderground v.1.15,2013-02-12 19:21:00,
2013-02-12 14:27:00,34.0,28.2,29.88,West,280,12.0,19.0,79,0.00,,,0.02,Wunderground v.1.15,2013-02-12 19:27:00,
2013-02-12 14:33:00,34.1,28.0,29.88,WNW,301,13.0,13.0,78,0.00,,,0.02,Wunderground v.1.15,2013-02-12 19:33:00,
2013-02-12 14:39:00,34.2,28.1,29.88,West,275,11.0,15.0,78,0.00,,,0.02,Wunderground v.1.15,2013-02-12 19:39:00,
2013-02-12 14:45:00,34.4,27.9,29.87,West,269,10.0,15.0,77,0.00,,,0.02,Wunderground v.1.15,2013-02-12 19:45:00,
2013-02-12 14:51:00,34.8,28.3,29.86,NW,315,10.0,10.0,77,0.00,,,0.02,Wunderground v.1.15,2013-02-12 19:51:00,
2013-02-12 14:57:00,36.0,29.2,29.86,NW,323,9.0,11.0,76,0.00,,,0.03,Wunderground v.1.15,2013-02-12 19:57:00,
2013-02-12 15:03:00,35.9,28.1,29.86,WNW,301,10.0,17.0,73,0.00,,,0.03,Wunderground v.1.15,2013-02-12 20:03:00,
2013-02-12 15:09:00,35.4,27.9,29.86,NW,319,12.0,17.0,74,0.00,,,0.03,Wunderground v.1.15,2013-02-12 20:09:00,
2013-02-12 15:15:00,35.3,27.8,29.86,West,269,12.0,17.0,74,0.00,,,0.03,Wunderground v.1.15,2013-02-12 20:15:00,
2013-02-12 15:21:00,35.3,27.8,29.86,NW,311,12.0,12.0,74,0.00,,,0.03,Wunderground v.1.15,2013-02-12 20:21:00,
2013-02-12 15:27:00,35.2,27.7,29.87,West,275,12.0,18.0,74,0.00,,,0.03,Wunderground v.1.15,2013-02-12 20:27:00,
2013-02-12 15:33:00,35.1,27.6,29.87,WNW,301,12.0,20.0,74,0.00,,,0.03,Wunderground v.1.15,2013-02-12 20:33:00,
2013-02-12 15:39:00,35.0,27.5,29.87,West,275,13.0,13.0,74,0.00,,,0.03,Wunderground v.1.15,2013-02-12 20:39:00,
2013-02-12 15:45:00,34.9,27.8,29.87,WNW,283,11.0,13.0,75,0.00,,,0.03,Wunderground v.1.15,2013-02-12 20:45:00,
2013-02-12 15:51:00,34.7,27.6,29.87,NW,323,9.0,10.0,75,0.00,,,0.03,Wunderground v.1.15,2013-02-12 20:51:00,
2013-02-12 15:57:00,34.5,27.4,29.87,NW,313,10.0,18.0,75,0.00,,,0.03,Wunderground v.1.15,2013-02-12 20:57:00,
2013-02-12 16:03:00,34.2,27.1,29.87,West,280,11.0,15.0,75,0.00,,,0.03,Wunderground v.1.15,2013-02-12 21:03:00,
2013-02-12 16:09:00,34.0,27.2,29.86,West,278,11.0,11.0,76,0.00,,,0.03,Wunderground v.1.15,2013-02-12 21:09:00,
2013-02-12 16:15:00,33.9,27.4,29.87,WNW,298,9.0,11.0,77,0.00,,,0.03,Wunderground v.1.15,2013-02-12 21:15:00,
2013-02-12 16:21:00,33.8,27.4,29.86,NW,307,10.0,10.0,77,0.00,,,0.03,Wunderground v.1.15,2013-02-12 21:21:00,
2013-02-12 16:27:00,33.7,27.3,29.86,WNW,282,9.0,10.0,77,0.00,,,0.03,Wunderground v.1.15,2013-02-12 21:27:00,
2013-02-12 16:33:00,33.6,27.2,29.86,WNW,282,7.0,9.0,77,0.00,,,0.03,Wunderground v.1.15,2013-02-12 21:33:00,
2013-02-12 16:39:00,33.4,27.0,29.86,WNW,294,7.0,7.0,77,0.00,,,0.03,Wunderground v.1.15,2013-02-12 21:39:00,
2013-02-12 16:45:00,33.3,26.9,29.86,West,279,7.0,8.0,77,0.00,,,0.03,Wunderground v.1.15,2013-02-12 21:45:00,
2013-02-12 16:51:00,33.2,26.8,29.86,NW,317,9.0,10.0,77,0.00,,,0.03,Wunderground v.1.15,2013-02-12 21:51:00,
2013-02-12 16:57:00,33.1,26.7,29.86,West,276,9.0,10.0,77,0.00,,,0.03,Wunderground v.1.15,2013-02-12 21:57:00,
2013-02-12 17:03:00,33.0,26.9,29.86,NW,325,8.0,10.0,78,0.00,,,0.03,Wunderground v.1.15,2013-02-12 22:03:00,
2013-02-12 17:09:00,32.9,26.8,29.87,West,273,7.0,7.0,78,0.00,,,0.03,Wunderground v.1.15,2013-02-12 22:09:00,
2013-02-12 17:15:00,32.8,26.7,29.88,WSW,254,6.0,10.0,78,0.00,,,0.03,Wunderground v.1.15,2013-02-12 22:15:00,
2013-02-12 17:21:00,32.8,26.7,29.88,West,275,7.0,7.0,78,0.00,,,0.03,Wunderground v.1.15,2013-02-12 22:21:00,
2013-02-12 17:27:00,32.7,26.6,29.88,West,278,6.0,7.0,78,0.00,,,0.03,Wunderground v.1.15,2013-02-12 22:27:00,
2013-02-12 17:33:00,32.7,26.6,29.89,WNW,284,6.0,7.0,78,0.00,,,0.03,Wunderground v.1.15,2013-02-12 22:33:00,
2013-02-12 17:39:00,32.6,26.2,29.90,WNW,288,6.0,16.0,77,0.00,,,0.03,Wunderground v.1.15,2013-02-12 22:39:00,
2013-02-12 17:45:00,32.5,25.8,29.90,WSW,253,9.0,16.0,76,0.00,,,0.03,Wunderground v.1.15,2013-02-12 22:45:00,
2013-02-12 17:51:00,32.6,26.2,29.90,WNW,290,7.0,9.0,77,0.00,,,0.03,Wunderground v.1.15,2013-02-12 22:51:00,
2013-02-12 17:57:00,32.5,26.1,29.91,WNW,289,7.0,9.0,77,0.00,,,0.03,Wunderground v.1.15,2013-02-12 22:57:00,
2013-02-12 18:03:00,32.5,26.1,29.91,WNW,290,7.0,9.0,77,0.00,,,0.03,Wunderground v.1.15,2013-02-12 23:03:00,
2013-02-12 18:09:00,32.4,26.3,29.92,WNW,291,7.0,10.0,78,0.00,,,0.03,Wunderground v.1.15,2013-02-12 23:09:00,
2013-02-12 18:15:00,32.3,26.8,29.92,SW,236,7.0,12.0,80,0.00,,,0.03,Wunderground v.1.15,2013-02-12 23:15:00,
2013-02-12 18:21:00,32.0,27.1,29.92,West,269,7.0,7.0,82,0.00,,,0.03,Wunderground v.1.15,2013-02-12 23:21:00,
2013-02-12 18:27:00,31.6,27.3,29.92,West,280,8.0,9.0,84,0.00,,,0.03,Wunderground v.1.15,2013-02-12 23:27:00,
2013-02-12 18:33:00,31.3,27.3,29.92,West,269,8.0,9.0,85,0.00,,,0.03,Wunderground v.1.15,2013-02-12 23:33:00,
2013-02-12 18:39:00,31.0,27.3,29.93,WSW,248,7.0,7.0,86,0.00,,,0.03,Wunderground v.1.15,2013-02-12 23:39:00,
2013-02-12 18:45:00,30.9,27.5,29.93,West,277,5.0,7.0,87,0.00,,,0.03,Wunderground v.1.15,2013-02-12 23:45:00,
2013-02-12 18:51:00,30.8,27.7,29.94,West,273,4.0,11.0,88,0.00,,,0.03,Wunderground v.1.15,2013-02-12 23:51:00,
2013-02-12 18:57:00,30.7,27.6,29.94,West,271,5.0,11.0,88,0.00,,,0.03,Wunderground v.1.15,2013-02-12 23:57:00,
2013-02-12 19:03:00,30.6,27.5,29.94,West,273,5.0,5.0,88,0.00,,,0.03,Wunderground v.1.15,2013-02-13 00:03:00,
2013-02-12 19:09:00,30.6,27.5,29.94,SW,235,5.0,5.0,88,0.00,,,0.03,Wunderground v.1.15,2013-02-13 00:09:00,
2013-02-12 19:15:00,30.6,27.5,29.95,WSW,240,5.0,6.0,88,0.00,,,0.03,Wunderground v.1.15,2013-02-13 00:15:00,
2013-02-12 19:21:00,30.6,27.5,29.95,WSW,237,5.0,5.0,88,0.00,,,0.03,Wunderground v.1.15,2013-02-13 00:21:00,
2013-02-12 19:27:00,30.6,27.5,29.95,West,264,4.0,5.0,88,0.00,,,0.03,Wunderground v.1.15,2013-02-13 00:27:00,
2013-02-12 19:33:00,30.6,27.5,29.95,West,261,4.0,5.0,88,0.00,,,0.03,Wunderground v.1.15,2013-02-13 00:33:00,
2013-02-12 19:39:00,30.6,27.5,29.95,West,267,4.0,5.0,88,0.00,,,0.03,Wunderground v.1.15,2013-02-13 00:39:00,
2013-02-12 19:45:00,30.6,27.5,29.95,West,260,5.0,9.0,88,0.00,,,0.03,Wunderground v.1.15,2013-02-13 00:45:00,
2013-02-12 19:51:00,30.6,27.5,29.95,SW,234,7.0,10.0,88,0.00,,,0.03,Wunderground v.1.15,2013-02-13 00:51:00,
2013-02-12 19:57:00,30.6,27.5,29.95,West,279,6.0,10.0,88,0.00,,,0.03,Wunderground v.1.15,2013-02-13 00:57:00,
2013-02-12 20:03:00,30.6,27.5,29.95,SW,236,5.0,5.0,88,0.00,,,0.03,Wunderground v.1.15,2013-02-13 01:03:00,
2013-02-12 20:09:00,30.6,27.2,29.95,WSW,250,5.0,5.0,87,0.00,,,0.03,Wunderground v.1.15,2013-02-13 01:09:00,
2013-02-12 20:15:00,30.5,27.1,29.96,WSW,255,4.0,6.0,87,0.00,,,0.03,Wunderground v.1.15,2013-02-13 01:15:00,
2013-02-12 20:21:00,30.5,27.1,29.96,West,264,4.0,5.0,87,0.00,,,0.03,Wunderground v.1.15,2013-02-13 01:21:00,
2013-02-12 20:27:00,30.5,27.1,29.96,West,266,4.0,6.0,87,0.00,,,0.03,Wunderground v.1.15,2013-02-13 01:27:00,
2013-02-12 20:33:00,30.5,27.1,29.96,West,260,4.0,5.0,87,0.00,,,0.03,Wunderground v.1.15,2013-02-13 01:33:00,
2013-02-12 20:39:00,30.5,27.1,29.95,West,267,4.0,4.0,87,0.00,,,0.03,Wunderground v.1.15,2013-02-13 01:39:00,
2013-02-12 20:45:00,30.5,27.1,29.95,WNW,288,3.0,6.0,87,0.00,,,0.03,Wunderground v.1.15,2013-02-13 01:45:00,
2013-02-12 20:51:00,30.5,26.8,29.95,West,263,5.0,5.0,86,0.00,,,0.03,Wunderground v.1.15,2013-02-13 01:51:00,
2013-02-12 20:57:00,30.5,26.8,29.95,West,263,6.0,9.0,86,0.00,,,0.03,Wunderground v.1.15,2013-02-13 01:57:00,
2013-02-12 21:03:00,30.6,26.9,29.95,West,261,6.0,9.0,86,0.00,,,0.03,Wunderground v.1.15,2013-02-13 02:03:00,
2013-02-12 21:09:00,30.6,26.9,29.95,WSW,256,6.0,7.0,86,0.00,,,0.03,Wunderground v.1.15,2013-02-13 02:09:00,
2013-02-12 21:15:00,30.6,26.6,29.95,WSW,246,6.0,7.0,85,0.00,,,0.03,Wunderground v.1.15,2013-02-13 02:15:00,
2013-02-12 21:21:00,30.6,26.6,29.95,WSW,246,6.0,12.0,85,0.00,,,0.03,Wunderground v.1.15,2013-02-13 02:21:00,
2013-02-12 21:27:00,30.6,26.9,29.94,West,281,6.0,12.0,86,0.00,,,0.03,Wunderground v.1.15,2013-02-13 02:27:00,
2013-02-12 21:33:00,30.6,26.9,29.95,West,279,6.0,7.0,86,0.00,,,0.03,Wunderground v.1.15,2013-02-13 02:33:00,
2013-02-12 21:39:00,30.5,26.8,29.94,West,274,5.0,6.0,86,0.00,,,0.03,Wunderground v.1.15,2013-02-13 02:39:00,
2013-02-12 21:45:00,30.5,26.8,29.94,West,273,6.0,8.0,86,0.00,,,0.03,Wunderground v.1.15,2013-02-13 02:45:00,
2013-02-12 21:51:00,30.5,26.8,29.94,West,279,6.0,15.0,86,0.00,,,0.03,Wunderground v.1.15,2013-02-13 02:51:00,
2013-02-12 21:57:00,30.4,26.7,29.94,WNW,283,7.0,15.0,86,0.00,,,0.03,Wunderground v.1.15,2013-02-13 02:57:00,
2013-02-12 22:03:00,30.4,26.7,29.93,West,273,7.0,8.0,86,0.00,,,0.03,Wunderground v.1.15,2013-02-13 03:03:00,
2013-02-12 22:09:00,30.5,26.5,29.93,West,269,7.0,7.0,85,0.00,,,0.03,Wunderground v.1.15,2013-02-13 03:09:00,
2013-02-12 22:15:00,30.4,26.4,29.93,West,271,8.0,9.0,85,0.00,,,0.03,Wunderground v.1.15,2013-02-13 03:15:00,
2013-02-12 22:21:00,30.5,26.2,29.93,West,279,9.0,11.0,84,0.00,,,0.03,Wunderground v.1.15,2013-02-13 03:21:00,
2013-02-12 22:27:00,30.6,26.3,29.93,WNW,284,9.0,11.0,84,0.00,,,0.03,Wunderground v.1.15,2013-02-13 03:27:00,
2013-02-12 22:33:00,30.6,26.3,29.92,West,273,8.0,10.0,84,0.00,,,0.03,Wunderground v.1.15,2013-02-13 03:33:00,
2013-02-12 22:39:00,30.6,26.3,29.92,West,277,7.0,9.0,84,0.00,,,0.03,Wunderground v.1.15,2013-02-13 03:39:00,
2013-02-12 22:45:00,30.6,26.3,29.92,WNW,286,6.0,10.0,84,0.00,,,0.03,Wunderground v.1.15,2013-02-13 03:45:00,
2013-02-12 22:51:00,30.6,26.3,29.92,WNW,284,6.0,8.0,84,0.00,,,0.03,Wunderground v.1.15,2013-02-13 03:51:00,
2013-02-12 22:57:00,30.6,26.3,29.92,West,269,6.0,9.0,84,0.00,,,0.03,Wunderground v.1.15,2013-02-13 03:57:00,
2013-02-12 23:03:00,30.6,26.3,29.92,West,271,5.0,7.0,84,0.00,,,0.03,Wunderground v.1.15,2013-02-13 04:03:00,
2013-02-12 23:09:00,30.6,26.3,29.92,West,275,4.0,4.0,84,0.00,,,0.03,Wunderground v.1.15,2013-02-13 04:09:00,
2013-02-12 23:15:00,30.6,26.3,29.92,West,278,5.0,5.0,84,0.00,,,0.03,Wunderground v.1.15,2013-02-13 04:15:00,
2013-02-12 23:21:00,30.7,26.1,29.91,West,269,7.0,8.0,83,0.00,,,0.03,Wunderground v.1.15,2013-02-13 04:21:00,
2013-02-12 23:27:00,30.7,26.1,29.91,West,275,7.0,14.0,83,0.00,,,0.03,Wunderground v.1.15,2013-02-13 04:27:00,
2013-02-12 23:33:00,30.8,26.2,29.91,West,279,7.0,7.0,83,0.00,,,0.03,Wunderground v.1.15,2013-02-13 04:33:00,
2013-02-12 23:39:00,30.8,26.2,29.91,West,281,6.0,6.0,83,0.00,,,0.03,Wunderground v.1.15,2013-02-13 04:39:00,
2013-02-12 23:45:00,30.8,26.2,29.91,West,279,6.0,12.0,83,0.00,,,0.03,Wunderground v.1.15,2013-02-13 04:45:00,
2013-02-12 23:51:00,30.8,26.2,29.91,West,264,5.0,6.0,83,0.00,,,0.03,Wunderground v.1.15,2013-02-13 04:51:00,
2013-02-12 23:57:00,30.8,26.2,29.92,West,262,4.0,6.0,83,0.00,,,0.03,Wunderground v.1.15,2013-02-13 04:57:00,